Webcams

EDPO Webcam Blick Richtung Osten (local time)

Webcam-2

Info zum Bild:

  • Blick zum Kloster Mariahilf, Entfernung ca. 3km
  • Blick zur Kirche St. Johannes, Entfernung ca. 1km
  • Blick zu den beiden Windrädern, Entfernung ca. 6km

EDPO Webcam Blick Richtung Westen (local time)

Webcam-1

Info zum Bild:

  • Blick zum Tyrolsberg, Entfernung ca. 3,5km

Dillberg Webcam Blick Richtung Osten zu EDPO (local time)

Webcam-1

Info zum Bild:

  • Blick vom Dillberg Richtung Neumarkt, Höhe 555ft über EDPO

Dillberg Webcam Blick Richtung Westen zum Sender (local time)

Webcam-1

Info zum Bild:

  • Blick vom Dillberg Sender, Höhe bis Spitze 1322ft über EDPO
  • 600m Entfernung / Sichtweite von CAM zum Dillberg Sender

Sparkasse Webcam Blick Richtung Nord-West über Neumarkt


Snapshot

Info zum Bild:

Nürnberger Fernsehturm (Rundum CAM)


METAR Informationen der nächstgelegenen Flughäfen


EDDN / Flughafen Nürnberg „Albrecht Dürer“

EDDN 211220Z 26006KT 220V360 9999 FEW030CB FEW040TCU 26/15 Q1021 NOSIG

ETIC / Fliegerhorst Grafenwöhr AAF

ETIC 211156Z AUTO 00000KT 9999 FEW075 22/19 A3015 RMK AO2 RAE18 TSB02E24 SLP197 P0022 60022 70030 T02220186 10245 20176 53001 $

ETIH / Fliegerhorst Hohenfels AAF

ETIH 211156Z AUTO 26012G18KT 9999 FEW200 27/17 A3017 RMK AO2 SLP196 60000 70019 T02670169 10267 20176 58004 $